Showing default

ESEO, 43792

Orbit data source: Space-Track

ESEO, 43792 is a payload satellite owned by ESA (ESA) in SSO that was launched on Mon, 03 Dec 2018 UTC via an FALCON 9 launch vehicle from the Air Force Western Test Range (AFWTR). Payloads include a variety of satellites, spacecraft, and rockets equipped with specific instruments for various scientific and technological missions. These include communications satellites like Starlink; space stations such as the ISS; scientific satellites like the Hubble; Earth observation satellites from companies like Planet Labs, Umbra, and HawkEye 360; GPS; miniature CubeSats for education and research; and military/defense satellites.

Loading next visibility...
ESEO details
Identifier
43792, 2018-099AL
Orbit
SSO
Last TLE update20 hours ago
Origin
Flag of ESAESA (ESA)
ManufacturerESTEC/OHBI
MissionOperational Civil Technology
Bus & MotorESEO, Unknown motor
Mass120 kg wet, 120 kg dry
Launch date (UTC)
2018-12-03 (6 years ago)
Launch vehicle
FALCON 9
Launch site
Air Force Western Test Range (AFWTR)
Object type
Payload
Rocket body
Debris
Shape & HBRBox, 0.63 m
Radar Cross Section0.262 m², Medium (>0.1 m² and < 1m²)

Expand to show TLE details & history

TLE from 20 hours ago
0 ESEO
1 43792U 18099AL  25023.71543179  .00003319  00000-0  25983-3 0  9997
2 43792  97.4700  76.5346 0008019 255.1056 104.9282 15.01663360335274
Epoch: 2025-01-23T17:10Z
Definitive object data (Epoch: 2025-01-23T17:10:13.306Z)
Latitude0.00005°
Longitude55.69018°
Altitude566.268 km
Speed7.577 km/s
True Right ascension05h 06m 08s
True Declination0° 00' 00"
Sunlit
Object was in full shadow at TLE epoch
Visualization TLE readout
Latitude-18.75735°
Longitude-126.04298°
Altitude565.769 km
Speed7.579 km/s
Apparent Right ascension20h 10m 49s
Apparent Declination-57° 38' 12"
Sunlit
Object is in daylight
Visualization observer readout
Local Sidereal Time14:30:37
Azimuth141.791° SSE
Elevation-30.436°
Doppler factor1
Orbital elements
Apogee altitude564.323 km
Perigee altitude553.197 km
Semi-major axis6,936.897 km
Eccentricity0.0008019
Inclination97.47°
RAAN76.5346°
Arg. of periapsis255.1056°
True anomaly105.01697°
Mean anomaly104.9282°
Eccentric anomaly104.97259°
Mean motion3.7566 °/min
BSTAR0.00025983
Orbital period95.83 mins
Loading maneuver chart data...
Loading historical data...
Loading historical data...
Loading historical data...
Loading historical data...
Loading historical data...
Loading historical data...
Loading historical data...

ESEO Visibility forecast

Observer location: undefined°, undefined

Span
Click to sort rows by Start time (UTC) header in descending order
Start Az.
Max El. time (UTC)
Max El. Az.
Max El.
End time (UTC)
End Az.
7 mins2025-01-24 16:07:38.221Z17.413° NNE2025-01-24 16:10:38.221Z67.122° ENE43.108°2025-01-24 16:14:38.221Z186.257° SSW
5 mins2025-01-25 02:54:38.221Z120.518° SE2025-01-25 02:56:38.221Z63.702° ENE30.426°2025-01-25 02:59:38.221Z8.304° NNE
|